Year,Month,Day,Hour,Minute,Value (Times are PST for temperature in C)
2017,05,27,00,00,14.10
2017,05,27,00,01,14.10
2017,05,27,00,02,14.10
2017,05,27,00,03,14.10
2017,05,27,00,04,14.00
2017,05,27,00,05,14.00
2017,05,27,00,06,14.00
2017,05,27,00,07,14.00
2017,05,27,00,08,14.00
2017,05,27,00,09,14.00
2017,05,27,00,10,14.00
2017,05,27,00,11,13.90
2017,05,27,00,12,13.90
2017,05,27,00,13,13.90
2017,05,27,00,14,13.90
2017,05,27,00,15,13.90
2017,05,27,00,16,13.90
2017,05,27,00,17,13.90
2017,05,27,00,18,13.80
2017,05,27,00,19,13.80
2017,05,27,00,20,13.80
2017,05,27,00,21,13.80
2017,05,27,00,22,13.80
2017,05,27,00,23,13.80
2017,05,27,00,24,13.80
2017,05,27,00,25,13.70
2017,05,27,00,26,13.70
2017,05,27,00,27,13.70
2017,05,27,00,28,13.70
2017,05,27,00,29,13.70
2017,05,27,00,30,13.70
2017,05,27,00,31,13.70
2017,05,27,00,32,13.70
2017,05,27,00,33,13.70
2017,05,27,00,34,13.70
2017,05,27,00,35,13.70
2017,05,27,00,36,13.70
2017,05,27,00,37,13.60
2017,05,27,00,38,13.60
2017,05,27,00,39,13.60
2017,05,27,00,40,13.60
2017,05,27,00,41,13.50
2017,05,27,00,42,13.50
2017,05,27,00,43,13.50
2017,05,27,00,44,13.50
2017,05,27,00,45,13.50
2017,05,27,00,46,13.50
2017,05,27,00,47,13.40
2017,05,27,00,48,13.40
2017,05,27,00,49,13.40
2017,05,27,00,50,13.40
2017,05,27,00,51,13.40
2017,05,27,00,52,13.40
2017,05,27,00,53,13.40
2017,05,27,00,54,13.40
2017,05,27,00,55,13.30
2017,05,27,00,56,13.30
2017,05,27,00,57,13.30
2017,05,27,00,58,13.30
2017,05,27,00,59,13.30
2017,05,27,01,00,13.30
2017,05,27,01,01,13.30
2017,05,27,01,02,13.30
2017,05,27,01,03,13.30
2017,05,27,01,04,13.30
2017,05,27,01,05,13.30
2017,05,27,01,06,13.20
2017,05,27,01,07,13.20
2017,05,27,01,08,13.20
2017,05,27,01,09,13.20
2017,05,27,01,10,13.20
2017,05,27,01,11,13.20
2017,05,27,01,12,13.10
2017,05,27,01,13,13.10
2017,05,27,01,14,13.10
2017,05,27,01,15,13.10
2017,05,27,01,16,13.10
2017,05,27,01,17,13.10
2017,05,27,01,18,13.00
2017,05,27,01,19,13.00
2017,05,27,01,20,13.00
2017,05,27,01,21,13.00
2017,05,27,01,22,12.90
2017,05,27,01,23,12.90
2017,05,27,01,24,12.90
2017,05,27,01,25,12.90
2017,05,27,01,26,12.80
2017,05,27,01,27,12.80
2017,05,27,01,28,12.80
2017,05,27,01,29,12.80
2017,05,27,01,30,12.80
2017,05,27,01,31,12.70
2017,05,27,01,32,12.70
2017,05,27,01,33,12.70
2017,05,27,01,34,12.70
2017,05,27,01,35,12.60
2017,05,27,01,36,12.60
2017,05,27,01,37,12.60
2017,05,27,01,38,12.60
2017,05,27,01,39,12.60
2017,05,27,01,40,12.50
2017,05,27,01,41,12.50
2017,05,27,01,42,12.50
2017,05,27,01,43,12.50
2017,05,27,01,44,12.50
2017,05,27,01,45,12.50
2017,05,27,01,46,12.50
2017,05,27,01,47,12.60
2017,05,27,01,48,12.60
2017,05,27,01,49,12.60
2017,05,27,01,50,12.60
2017,05,27,01,51,12.60
2017,05,27,01,52,12.60
2017,05,27,01,53,12.60
2017,05,27,01,54,12.60
2017,05,27,01,55,12.60
2017,05,27,01,56,12.60
2017,05,27,01,57,12.60
2017,05,27,01,58,12.60
2017,05,27,01,59,12.60
2017,05,27,02,00,12.60
2017,05,27,02,01,12.60
2017,05,27,02,02,12.50
2017,05,27,02,03,12.50
2017,05,27,02,04,12.50
2017,05,27,02,05,12.50
2017,05,27,02,06,12.50
2017,05,27,02,07,12.40
2017,05,27,02,08,12.40
2017,05,27,02,09,12.40
2017,05,27,02,10,12.40
2017,05,27,02,11,12.30
2017,05,27,02,12,12.30
2017,05,27,02,13,12.30
2017,05,27,02,14,12.30
2017,05,27,02,15,12.30
2017,05,27,02,16,12.30
2017,05,27,02,17,12.30
2017,05,27,02,18,12.30
2017,05,27,02,19,12.30
2017,05,27,02,20,12.20
2017,05,27,02,21,12.20
2017,05,27,02,22,12.20
2017,05,27,02,23,12.20
2017,05,27,02,24,12.10
2017,05,27,02,25,12.10
2017,05,27,02,26,12.10
2017,05,27,02,27,12.10
2017,05,27,02,28,12.00
2017,05,27,02,29,12.00
2017,05,27,02,30,12.00
2017,05,27,02,31,12.00
2017,05,27,02,32,12.00
2017,05,27,02,33,12.00
2017,05,27,02,34,11.90
2017,05,27,02,35,11.90
2017,05,27,02,36,11.90
2017,05,27,02,37,11.90
2017,05,27,02,38,11.90
2017,05,27,02,39,11.90
2017,05,27,02,40,11.90
2017,05,27,02,41,11.90
2017,05,27,02,42,11.90
2017,05,27,02,43,11.90
2017,05,27,02,44,11.90
2017,05,27,02,45,11.90
2017,05,27,02,46,11.90
2017,05,27,02,47,11.90
2017,05,27,02,48,11.90
2017,05,27,02,49,11.90
2017,05,27,02,50,11.80
2017,05,27,02,51,11.80
2017,05,27,02,52,11.80
2017,05,27,02,53,11.80
2017,05,27,02,54,11.80
2017,05,27,02,55,11.80
2017,05,27,02,56,11.80
2017,05,27,02,57,11.80
2017,05,27,02,58,11.80
2017,05,27,02,59,11.80
2017,05,27,03,00,11.80
2017,05,27,03,01,11.80
2017,05,27,03,02,11.80
2017,05,27,03,03,11.80
2017,05,27,03,04,11.80
2017,05,27,03,05,11.80
2017,05,27,03,06,11.80
2017,05,27,03,07,11.80
2017,05,27,03,08,11.80
2017,05,27,03,09,11.80
2017,05,27,03,10,11.80
2017,05,27,03,11,11.90
2017,05,27,03,12,11.90
2017,05,27,03,13,11.90
2017,05,27,03,14,11.90
2017,05,27,03,15,11.90
2017,05,27,03,16,11.90
2017,05,27,03,17,11.90
2017,05,27,03,18,11.80
2017,05,27,03,19,11.80
2017,05,27,03,20,11.80
2017,05,27,03,21,11.80
2017,05,27,03,22,11.80
2017,05,27,03,23,11.80
2017,05,27,03,24,11.70
2017,05,27,03,25,11.70
2017,05,27,03,26,11.70
2017,05,27,03,27,11.70
2017,05,27,03,28,11.60
2017,05,27,03,29,11.60
2017,05,27,03,30,11.60
2017,05,27,03,31,11.60
2017,05,27,03,32,11.60
2017,05,27,03,33,11.60
2017,05,27,03,34,11.60
2017,05,27,03,35,11.60
2017,05,27,03,36,11.60
2017,05,27,03,37,11.60
2017,05,27,03,38,11.50
2017,05,27,03,39,11.40
2017,05,27,03,40,11.40
2017,05,27,03,41,11.40
2017,05,27,03,42,11.40
2017,05,27,03,43,11.40
2017,05,27,03,44,11.40
2017,05,27,03,45,11.40
2017,05,27,03,46,11.40
2017,05,27,03,47,11.40
2017,05,27,03,48,11.40
2017,05,27,03,49,11.40
2017,05,27,03,50,11.40
2017,05,27,03,51,11.40
2017,05,27,03,52,11.40
2017,05,27,03,53,11.30
2017,05,27,03,54,11.30
2017,05,27,03,55,11.30
2017,05,27,03,56,11.30
2017,05,27,03,57,11.30
2017,05,27,03,58,11.30
2017,05,27,03,59,11.30
2017,05,27,04,00,11.20
2017,05,27,04,01,11.20
2017,05,27,04,02,11.20
2017,05,27,04,03,11.20
2017,05,27,04,04,11.20
2017,05,27,04,05,11.20
2017,05,27,04,06,11.20
2017,05,27,04,07,11.20
2017,05,27,04,08,11.20
2017,05,27,04,09,11.10
2017,05,27,04,10,11.10
2017,05,27,04,11,11.10
2017,05,27,04,12,11.10
2017,05,27,04,13,11.10
2017,05,27,04,14,11.10
2017,05,27,04,15,11.10
2017,05,27,04,16,11.10
2017,05,27,04,17,11.10
2017,05,27,04,18,11.10
2017,05,27,04,19,11.00
2017,05,27,04,20,10.90
2017,05,27,04,21,10.90
2017,05,27,04,22,10.90
2017,05,27,04,23,10.90
2017,05,27,04,24,10.90
2017,05,27,04,25,10.90
2017,05,27,04,26,10.90
2017,05,27,04,27,10.90
2017,05,27,04,28,10.90
2017,05,27,04,29,10.90
2017,05,27,04,30,10.90
2017,05,27,04,31,10.90
2017,05,27,04,32,10.90
2017,05,27,04,33,10.90
2017,05,27,04,34,10.90
2017,05,27,04,35,10.90
2017,05,27,04,36,10.90
2017,05,27,04,37,10.90
2017,05,27,04,38,10.90
2017,05,27,04,39,10.90
2017,05,27,04,40,10.90
2017,05,27,04,41,10.90
2017,05,27,04,42,10.90
2017,05,27,04,43,10.90
2017,05,27,04,44,10.90
2017,05,27,04,45,10.90
2017,05,27,04,46,10.80
2017,05,27,04,47,10.80
2017,05,27,04,48,10.80
2017,05,27,04,49,10.80
2017,05,27,04,50,10.80
2017,05,27,04,51,10.70
2017,05,27,04,52,10.70
2017,05,27,04,53,10.70
2017,05,27,04,54,10.70
2017,05,27,04,55,10.60
2017,05,27,04,56,10.60
2017,05,27,04,57,10.60
2017,05,27,04,58,10.60
2017,05,27,04,59,10.60
2017,05,27,05,00,10.60
2017,05,27,05,01,10.60
2017,05,27,05,02,10.50
2017,05,27,05,03,10.40
2017,05,27,05,04,10.40
2017,05,27,05,05,10.40
2017,05,27,05,06,10.40
2017,05,27,05,07,10.40
2017,05,27,05,08,10.40
2017,05,27,05,09,10.40
2017,05,27,05,10,10.40
2017,05,27,05,11,10.40
2017,05,27,05,12,10.40
2017,05,27,05,13,10.40
2017,05,27,05,14,10.40
2017,05,27,05,15,10.40
2017,05,27,05,16,10.40
2017,05,27,05,17,10.40
2017,05,27,05,18,10.40
2017,05,27,05,19,10.40
2017,05,27,05,20,10.40
2017,05,27,05,21,10.40
2017,05,27,05,22,10.40
2017,05,27,05,23,10.40
2017,05,27,05,24,10.40
2017,05,27,05,25,10.40
2017,05,27,05,26,10.40
2017,05,27,05,27,10.40
2017,05,27,05,28,10.40
2017,05,27,05,29,10.30
2017,05,27,05,30,10.40
2017,05,27,05,31,10.40
2017,05,27,05,32,10.30
2017,05,27,05,33,10.30
2017,05,27,05,34,10.30
2017,05,27,05,35,10.30
2017,05,27,05,36,10.30
2017,05,27,05,37,10.40
2017,05,27,05,38,10.40
2017,05,27,05,39,10.40
2017,05,27,05,40,10.40
2017,05,27,05,41,10.40
2017,05,27,05,42,10.40
2017,05,27,05,43,10.40
2017,05,27,05,44,10.40
2017,05,27,05,45,10.40
2017,05,27,05,46,10.40
2017,05,27,05,47,10.40
2017,05,27,05,48,10.40
2017,05,27,05,49,10.40
2017,05,27,05,50,10.40
2017,05,27,05,51,10.40
2017,05,27,05,52,10.40
2017,05,27,05,53,10.40
2017,05,27,05,54,10.40
2017,05,27,05,55,10.60
2017,05,27,05,56,10.60
2017,05,27,05,57,10.60
2017,05,27,05,58,10.60
2017,05,27,05,59,10.60
2017,05,27,06,00,10.60
2017,05,27,06,01,10.70
2017,05,27,06,02,10.70
2017,05,27,06,03,10.70
2017,05,27,06,04,10.80
2017,05,27,06,05,10.80
2017,05,27,06,06,10.90
2017,05,27,06,07,10.90
2017,05,27,06,08,10.90
2017,05,27,06,09,10.90
2017,05,27,06,10,11.10
2017,05,27,06,11,11.10
2017,05,27,06,12,11.10
2017,05,27,06,13,11.10
2017,05,27,06,14,11.10
2017,05,27,06,15,11.10
2017,05,27,06,16,11.10
2017,05,27,06,17,11.10
2017,05,27,06,18,11.20
2017,05,27,06,19,11.20
2017,05,27,06,20,11.30
2017,05,27,06,21,11.30
2017,05,27,06,22,11.40
2017,05,27,06,23,11.40
2017,05,27,06,24,11.40
2017,05,27,06,25,11.40
2017,05,27,06,26,11.50
2017,05,27,06,27,11.60
2017,05,27,06,28,11.60
2017,05,27,06,29,11.60
2017,05,27,06,30,11.60
2017,05,27,06,31,11.70
2017,05,27,06,32,11.70
2017,05,27,06,33,11.70
2017,05,27,06,34,11.80
2017,05,27,06,35,11.80
2017,05,27,06,36,11.80
2017,05,27,06,37,11.80
2017,05,27,06,38,11.90
2017,05,27,06,39,11.90
2017,05,27,06,40,11.90
2017,05,27,06,41,12.00
2017,05,27,06,42,12.00
2017,05,27,06,43,12.00
2017,05,27,06,44,12.00
2017,05,27,06,45,12.10
2017,05,27,06,46,12.20
2017,05,27,06,47,12.30
2017,05,27,06,48,12.30
2017,05,27,06,49,12.40
2017,05,27,06,50,12.40
2017,05,27,06,51,12.50
2017,05,27,06,52,12.60
2017,05,27,06,53,12.70
2017,05,27,06,54,12.80
2017,05,27,06,55,12.80
2017,05,27,06,56,12.90
2017,05,27,06,57,13.00
2017,05,27,06,58,13.10
2017,05,27,06,59,13.20
2017,05,27,07,00,13.30
2017,05,27,07,01,13.40
2017,05,27,07,02,13.50
2017,05,27,07,03,13.60
2017,05,27,07,04,13.70
2017,05,27,07,05,13.70
2017,05,27,07,06,13.80
2017,05,27,07,07,13.90
2017,05,27,07,08,14.00
2017,05,27,07,09,14.10
2017,05,27,07,10,14.20
2017,05,27,07,11,14.30
2017,05,27,07,12,14.40
2017,05,27,07,13,14.50
2017,05,27,07,14,14.50
2017,05,27,07,15,14.50
2017,05,27,07,16,14.60
2017,05,27,07,17,14.60
2017,05,27,07,18,14.70
2017,05,27,07,19,14.80
2017,05,27,07,20,15.00
2017,05,27,07,21,15.10
2017,05,27,07,22,15.10
2017,05,27,07,23,15.20
2017,05,27,07,24,15.20
2017,05,27,07,25,15.30
2017,05,27,07,26,15.30
2017,05,27,07,27,15.30
2017,05,27,07,28,15.30
2017,05,27,07,29,15.30
2017,05,27,07,30,15.30
2017,05,27,07,31,15.30
2017,05,27,07,32,15.30
2017,05,27,07,33,15.30
2017,05,27,07,34,15.40
2017,05,27,07,35,15.40
2017,05,27,07,36,15.40
2017,05,27,07,37,15.50
2017,05,27,07,38,15.60
2017,05,27,07,39,15.70
2017,05,27,07,40,15.80
2017,05,27,07,41,15.80
2017,05,27,07,42,15.90
2017,05,27,07,43,16.00
2017,05,27,07,44,16.10
2017,05,27,07,45,16.10
2017,05,27,07,46,16.20
2017,05,27,07,47,16.20
2017,05,27,07,48,16.30
2017,05,27,07,49,16.40
2017,05,27,07,50,16.40
2017,05,27,07,51,16.40
2017,05,27,07,52,16.60
2017,05,27,07,53,16.70
2017,05,27,07,54,16.70
2017,05,27,07,55,16.80
2017,05,27,07,56,16.80
2017,05,27,07,57,16.90
2017,05,27,07,58,17.00
2017,05,27,07,59,17.00
2017,05,27,08,00,17.10
2017,05,27,08,01,17.20
2017,05,27,08,02,17.30
2017,05,27,08,03,17.40
2017,05,27,08,04,17.40
2017,05,27,08,05,17.50
2017,05,27,08,06,17.60
2017,05,27,08,07,17.60
2017,05,27,08,08,17.70
2017,05,27,08,09,17.70
2017,05,27,08,10,17.70
2017,05,27,08,11,17.80
2017,05,27,08,12,17.80
2017,05,27,08,13,17.80
2017,05,27,08,14,17.90
2017,05,27,08,15,17.90
2017,05,27,08,16,17.90
2017,05,27,08,17,18.00
2017,05,27,08,18,18.10
2017,05,27,08,19,18.10
2017,05,27,08,20,18.20
2017,05,27,08,21,18.20
2017,05,27,08,22,18.20
2017,05,27,08,23,18.30
2017,05,27,08,24,18.40
2017,05,27,08,25,18.60
2017,05,27,08,26,18.70
2017,05,27,08,27,18.70
2017,05,27,08,28,18.70
2017,05,27,08,29,18.70
2017,05,27,08,30,18.70
2017,05,27,08,31,18.70
2017,05,27,08,32,18.80
2017,05,27,08,33,18.80
2017,05,27,08,34,18.90
2017,05,27,08,35,19.00
2017,05,27,08,36,19.10
2017,05,27,08,37,19.10
2017,05,27,08,38,19.10
2017,05,27,08,39,19.10
2017,05,27,08,40,19.00
2017,05,27,08,41,18.90
2017,05,27,08,42,18.90
2017,05,27,08,43,18.90
2017,05,27,08,44,18.80
2017,05,27,08,45,18.80
2017,05,27,08,46,18.90
2017,05,27,08,47,18.90
2017,05,27,08,48,18.90
2017,05,27,08,49,18.90
2017,05,27,08,50,18.90
2017,05,27,08,51,18.90
2017,05,27,08,52,18.90
2017,05,27,08,53,18.80
2017,05,27,08,54,18.70
2017,05,27,08,55,18.50
2017,05,27,08,56,18.30
2017,05,27,08,57,18.20
2017,05,27,08,58,18.20
2017,05,27,08,59,18.10
2017,05,27,09,00,18.00
2017,05,27,09,01,18.00
2017,05,27,09,02,17.90
2017,05,27,09,03,17.90
2017,05,27,09,04,17.90
2017,05,27,09,05,18.00
2017,05,27,09,06,18.10
2017,05,27,09,07,18.10
2017,05,27,09,08,18.20
2017,05,27,09,09,18.20
2017,05,27,09,10,18.20
2017,05,27,09,11,18.20
2017,05,27,09,12,18.30
2017,05,27,09,13,18.40
2017,05,27,09,14,18.40
2017,05,27,09,15,18.50
2017,05,27,09,16,18.60
2017,05,27,09,17,18.70
2017,05,27,09,18,18.90
2017,05,27,09,19,18.90
2017,05,27,09,20,18.90
2017,05,27,09,21,18.90
2017,05,27,09,22,18.90
2017,05,27,09,23,18.70
2017,05,27,09,24,18.70
2017,05,27,09,25,18.60
2017,05,27,09,26,18.50
2017,05,27,09,27,18.40
2017,05,27,09,28,18.40
2017,05,27,09,29,18.30
2017,05,27,09,30,18.30
2017,05,27,09,31,18.20
2017,05,27,09,32,18.20
2017,05,27,09,33,18.00
2017,05,27,09,34,17.90
2017,05,27,09,35,17.80
2017,05,27,09,36,17.80
2017,05,27,09,37,17.80
2017,05,27,09,38,17.70
2017,05,27,09,39,17.70
2017,05,27,09,40,17.70
2017,05,27,09,41,17.70
2017,05,27,09,42,17.70
2017,05,27,09,43,17.70
2017,05,27,09,44,17.40
2017,05,27,09,45,17.30
2017,05,27,09,46,17.20
2017,05,27,09,47,17.10
2017,05,27,09,48,17.10
2017,05,27,09,49,17.10
2017,05,27,09,50,17.00
2017,05,27,09,51,17.00
2017,05,27,09,52,17.00
2017,05,27,09,53,17.10
2017,05,27,09,54,17.20
2017,05,27,09,55,17.30
2017,05,27,09,56,17.40
2017,05,27,09,57,17.40
2017,05,27,09,58,17.40
2017,05,27,09,59,17.40
2017,05,27,10,00,17.30
2017,05,27,10,01,17.30
2017,05,27,10,02,17.30
2017,05,27,10,03,17.30
2017,05,27,10,04,17.40
2017,05,27,10,05,17.40
2017,05,27,10,06,17.30
2017,05,27,10,07,17.30
2017,05,27,10,08,17.30
2017,05,27,10,09,17.30
2017,05,27,10,10,17.30
2017,05,27,10,11,17.30
2017,05,27,10,12,17.30
2017,05,27,10,13,17.20
2017,05,27,10,14,17.20
2017,05,27,10,15,17.20
2017,05,27,10,16,17.30
2017,05,27,10,17,17.40
2017,05,27,10,18,17.40
2017,05,27,10,19,17.40
2017,05,27,10,20,17.40
2017,05,27,10,21,17.50
2017,05,27,10,22,17.50
2017,05,27,10,23,17.60
2017,05,27,10,24,17.60
2017,05,27,10,25,17.70
2017,05,27,10,26,17.70
2017,05,27,10,27,17.80
2017,05,27,10,28,17.70
2017,05,27,10,29,17.60
2017,05,27,10,30,17.50
2017,05,27,10,31,17.60
2017,05,27,10,32,17.60
2017,05,27,10,33,17.70
2017,05,27,10,34,17.80
2017,05,27,10,35,17.90
2017,05,27,10,36,17.90
2017,05,27,10,37,17.90
2017,05,27,10,38,17.90
2017,05,27,10,39,18.00
2017,05,27,10,40,18.10
2017,05,27,10,41,18.10
2017,05,27,10,42,18.20
2017,05,27,10,43,18.20
2017,05,27,10,44,18.20
2017,05,27,10,45,18.30
2017,05,27,10,46,18.30
2017,05,27,10,47,18.20
2017,05,27,10,48,18.20
2017,05,27,10,49,18.30
2017,05,27,10,50,18.30
2017,05,27,10,51,18.50
2017,05,27,10,52,18.60
2017,05,27,10,53,18.60
2017,05,27,10,54,18.50
2017,05,27,10,55,18.40
2017,05,27,10,56,18.40
2017,05,27,10,57,18.50
2017,05,27,10,58,18.60
2017,05,27,10,59,18.80
2017,05,27,11,00,19.00
2017,05,27,11,01,19.10
2017,05,27,11,02,19.30
2017,05,27,11,03,19.40
2017,05,27,11,04,19.60
2017,05,27,11,05,19.60
2017,05,27,11,06,19.50
2017,05,27,11,07,19.50
2017,05,27,11,08,19.40
2017,05,27,11,09,19.40
2017,05,27,11,10,19.40
2017,05,27,11,11,19.50
2017,05,27,11,12,19.50
2017,05,27,11,13,19.50
2017,05,27,11,14,19.60
2017,05,27,11,15,19.70
2017,05,27,11,16,19.60
2017,05,27,11,17,19.40
2017,05,27,11,18,19.30
2017,05,27,11,19,19.30
2017,05,27,11,20,19.30
2017,05,27,11,21,19.40
2017,05,27,11,22,19.50
2017,05,27,11,23,19.50
2017,05,27,11,24,19.60
2017,05,27,11,25,19.70
2017,05,27,11,26,19.90
2017,05,27,11,27,20.10
2017,05,27,11,28,20.40
2017,05,27,11,29,20.60
2017,05,27,11,30,20.80
2017,05,27,11,31,20.80
2017,05,27,11,32,20.90
2017,05,27,11,33,20.90
2017,05,27,11,34,20.80
2017,05,27,11,35,20.80
2017,05,27,11,36,20.70
2017,05,27,11,37,20.60
2017,05,27,11,38,20.40
2017,05,27,11,39,20.20
2017,05,27,11,40,20.00
2017,05,27,11,41,19.80
2017,05,27,11,42,19.60
2017,05,27,11,43,19.40
2017,05,27,11,44,19.20
2017,05,27,11,45,19.10
2017,05,27,11,46,19.10
2017,05,27,11,47,19.10
2017,05,27,11,48,19.00
2017,05,27,11,49,18.90
2017,05,27,11,50,18.90
2017,05,27,11,51,18.90
2017,05,27,11,52,19.00
2017,05,27,11,53,19.10
2017,05,27,11,54,19.10
2017,05,27,11,55,19.10
2017,05,27,11,56,19.10
2017,05,27,11,57,19.10
2017,05,27,11,58,19.00
2017,05,27,11,59,18.90
2017,05,27,12,00,18.90
2017,05,27,12,01,18.90
2017,05,27,12,02,18.80
2017,05,27,12,03,18.80
2017,05,27,12,04,18.70
2017,05,27,12,05,18.60
2017,05,27,12,06,18.60
2017,05,27,12,07,18.70
2017,05,27,12,08,18.80
2017,05,27,12,09,18.80
2017,05,27,12,10,18.80
2017,05,27,12,11,18.80
2017,05,27,12,12,18.80
2017,05,27,12,13,18.90
2017,05,27,12,14,18.90
2017,05,27,12,15,18.90
2017,05,27,12,16,18.90
2017,05,27,12,17,18.90
2017,05,27,12,18,19.00
2017,05,27,12,19,19.10
2017,05,27,12,20,19.10
2017,05,27,12,21,19.10
2017,05,27,12,22,19.10
2017,05,27,12,23,19.10
2017,05,27,12,24,19.10
2017,05,27,12,25,19.20
2017,05,27,12,26,19.30
2017,05,27,12,27,19.30
2017,05,27,12,28,19.40
2017,05,27,12,29,19.40
2017,05,27,12,30,19.40
2017,05,27,12,31,19.40
2017,05,27,12,32,19.40
2017,05,27,12,33,19.40
2017,05,27,12,34,19.40
2017,05,27,12,35,19.40
2017,05,27,12,36,19.50
2017,05,27,12,37,19.40
2017,05,27,12,38,19.20
2017,05,27,12,39,19.20
2017,05,27,12,40,19.20
2017,05,27,12,41,19.30
2017,05,27,12,42,19.40
2017,05,27,12,43,19.40
2017,05,27,12,44,19.40
2017,05,27,12,45,19.30
2017,05,27,12,46,19.20
2017,05,27,12,47,19.20
2017,05,27,12,48,19.30
2017,05,27,12,49,19.40
2017,05,27,12,50,19.30
2017,05,27,12,51,19.30
2017,05,27,12,52,19.30
2017,05,27,12,53,19.40
2017,05,27,12,54,19.50
2017,05,27,12,55,19.70
2017,05,27,12,56,19.80
2017,05,27,12,57,19.90
2017,05,27,12,58,19.90
2017,05,27,12,59,20.10
2017,05,27,13,00,20.20
2017,05,27,13,01,20.20
2017,05,27,13,02,20.30
2017,05,27,13,03,20.30
2017,05,27,13,04,20.40
2017,05,27,13,05,20.50
2017,05,27,13,06,20.50
2017,05,27,13,07,20.60
2017,05,27,13,08,20.60
2017,05,27,13,09,20.60
2017,05,27,13,10,20.50
2017,05,27,13,11,20.40
2017,05,27,13,12,20.40
2017,05,27,13,13,20.40
2017,05,27,13,14,20.30
2017,05,27,13,15,20.20
2017,05,27,13,16,20.10
2017,05,27,13,17,20.10
2017,05,27,13,18,19.90
2017,05,27,13,19,19.90
2017,05,27,13,20,19.90
2017,05,27,13,21,20.10
2017,05,27,13,22,20.20
2017,05,27,13,23,20.20
2017,05,27,13,24,20.10
2017,05,27,13,25,20.10
2017,05,27,13,26,20.00
2017,05,27,13,27,19.90
2017,05,27,13,28,19.90
2017,05,27,13,29,19.90
2017,05,27,13,30,20.00
2017,05,27,13,31,20.20
2017,05,27,13,32,20.20
2017,05,27,13,33,20.20
2017,05,27,13,34,20.20
2017,05,27,13,35,20.20
2017,05,27,13,36,20.30
2017,05,27,13,37,20.40
2017,05,27,13,38,20.40
2017,05,27,13,39,20.40
2017,05,27,13,40,20.40
2017,05,27,13,41,20.40
2017,05,27,13,42,20.30
2017,05,27,13,43,20.40
2017,05,27,13,44,20.50
2017,05,27,13,45,20.70
2017,05,27,13,46,20.80
2017,05,27,13,47,20.80
2017,05,27,13,48,20.90
2017,05,27,13,49,21.00
2017,05,27,13,50,21.10
2017,05,27,13,51,21.20
2017,05,27,13,52,21.30
2017,05,27,13,53,21.30
2017,05,27,13,54,21.40
2017,05,27,13,55,21.60
2017,05,27,13,56,21.70
2017,05,27,13,57,21.70
2017,05,27,13,58,21.70
2017,05,27,13,59,21.70
2017,05,27,14,00,21.80
2017,05,27,14,01,21.90
2017,05,27,14,02,21.90
2017,05,27,14,03,21.80
2017,05,27,14,04,21.70
2017,05,27,14,05,21.70
2017,05,27,14,06,21.80
2017,05,27,14,07,21.90
2017,05,27,14,08,21.90
2017,05,27,14,09,22.00
2017,05,27,14,10,22.00
2017,05,27,14,11,22.10
2017,05,27,14,12,22.20
2017,05,27,14,13,22.30
2017,05,27,14,14,22.40
2017,05,27,14,15,22.50
2017,05,27,14,16,22.60
2017,05,27,14,17,22.60
2017,05,27,14,18,22.80
2017,05,27,14,19,22.90
2017,05,27,14,20,22.90
2017,05,27,14,21,22.90
2017,05,27,14,22,22.80
2017,05,27,14,23,22.80
2017,05,27,14,24,22.60
2017,05,27,14,25,22.50
2017,05,27,14,26,22.40
2017,05,27,14,27,22.40
2017,05,27,14,28,22.40
2017,05,27,14,29,22.50
2017,05,27,14,30,22.60
2017,05,27,14,31,22.70
2017,05,27,14,32,22.80
2017,05,27,14,33,22.90
2017,05,27,14,34,22.90
2017,05,27,14,35,22.90
2017,05,27,14,36,22.90
2017,05,27,14,37,22.90
2017,05,27,14,38,22.90
2017,05,27,14,39,22.90
2017,05,27,14,40,23.00
2017,05,27,14,41,23.10
2017,05,27,14,42,23.10
2017,05,27,14,43,23.30
2017,05,27,14,44,23.30
2017,05,27,14,45,23.40
2017,05,27,14,46,23.50
2017,05,27,14,47,23.60
2017,05,27,14,48,23.70
2017,05,27,14,49,23.70
2017,05,27,14,50,23.70
2017,05,27,14,51,23.70
2017,05,27,14,52,23.70
2017,05,27,14,53,23.70
2017,05,27,14,54,23.70
2017,05,27,14,55,23.50
2017,05,27,14,56,23.40
2017,05,27,14,57,23.40
2017,05,27,14,58,23.40
2017,05,27,14,59,23.30
2017,05,27,15,00,23.30
2017,05,27,15,01,23.30
2017,05,27,15,02,23.40
2017,05,27,15,03,23.50
2017,05,27,15,04,23.60
2017,05,27,15,05,23.60
2017,05,27,15,06,23.60
2017,05,27,15,07,23.60
2017,05,27,15,08,23.70
2017,05,27,15,09,23.70
2017,05,27,15,10,23.70
2017,05,27,15,11,23.70
2017,05,27,15,12,23.70
2017,05,27,15,13,23.70
2017,05,27,15,14,23.60
2017,05,27,15,15,23.50
2017,05,27,15,16,23.40
2017,05,27,15,17,23.30
2017,05,27,15,18,23.20
2017,05,27,15,19,23.20
2017,05,27,15,20,23.20
2017,05,27,15,21,23.10
2017,05,27,15,22,23.10
2017,05,27,15,23,23.10
2017,05,27,15,24,23.10
2017,05,27,15,25,23.20
2017,05,27,15,26,23.30
2017,05,27,15,27,23.40
2017,05,27,15,28,23.50
2017,05,27,15,29,23.70
2017,05,27,15,30,23.70
2017,05,27,15,31,23.70
2017,05,27,15,32,23.60
2017,05,27,15,33,23.60
2017,05,27,15,34,23.60
2017,05,27,15,35,23.60
2017,05,27,15,36,23.50
2017,05,27,15,37,23.40
2017,05,27,15,38,23.50
2017,05,27,15,39,23.60
2017,05,27,15,40,23.60
2017,05,27,15,41,23.60
2017,05,27,15,42,23.60
2017,05,27,15,43,23.50
2017,05,27,15,44,23.50
2017,05,27,15,45,23.60
2017,05,27,15,46,23.60
2017,05,27,15,47,23.60
2017,05,27,15,48,23.60
2017,05,27,15,49,23.70
2017,05,27,15,50,23.70
2017,05,27,15,51,23.70
2017,05,27,15,52,23.80
2017,05,27,15,53,23.90
2017,05,27,15,54,24.00
2017,05,27,15,55,24.10
2017,05,27,15,56,24.10
2017,05,27,15,57,24.10
2017,05,27,15,58,24.10
2017,05,27,15,59,24.10
2017,05,27,16,00,24.20
2017,05,27,16,01,24.20
2017,05,27,16,02,24.20
2017,05,27,16,03,24.30
2017,05,27,16,04,24.20
2017,05,27,16,05,24.30
2017,05,27,16,06,24.30
2017,05,27,16,07,24.30
2017,05,27,16,08,24.20
2017,05,27,16,09,24.10
2017,05,27,16,10,24.10
2017,05,27,16,11,23.90
2017,05,27,16,12,23.80
2017,05,27,16,13,23.60
2017,05,27,16,14,23.60
2017,05,27,16,15,23.60
2017,05,27,16,16,23.70
2017,05,27,16,17,23.70
2017,05,27,16,18,23.80
2017,05,27,16,19,24.00
2017,05,27,16,20,24.10
2017,05,27,16,21,24.20
2017,05,27,16,22,24.20
2017,05,27,16,23,24.30
2017,05,27,16,24,24.40
2017,05,27,16,25,24.30
2017,05,27,16,26,24.30
2017,05,27,16,27,24.20
2017,05,27,16,28,24.20
2017,05,27,16,29,24.20
2017,05,27,16,30,24.20
2017,05,27,16,31,23.90
2017,05,27,16,32,23.60
2017,05,27,16,33,23.40
2017,05,27,16,34,23.30
2017,05,27,16,35,23.10
2017,05,27,16,36,22.90
2017,05,27,16,37,22.70
2017,05,27,16,38,22.60
2017,05,27,16,39,22.50
2017,05,27,16,40,22.50
2017,05,27,16,41,22.40
2017,05,27,16,42,22.40
2017,05,27,16,43,22.30
2017,05,27,16,44,22.30
2017,05,27,16,45,22.30
2017,05,27,16,46,22.50
2017,05,27,16,47,22.60
2017,05,27,16,48,22.60
2017,05,27,16,49,22.70
2017,05,27,16,50,22.80
2017,05,27,16,51,22.80
2017,05,27,16,52,22.70
2017,05,27,16,53,22.60
2017,05,27,16,54,22.70
2017,05,27,16,55,22.70
2017,05,27,16,56,22.70
2017,05,27,16,57,22.70
2017,05,27,16,58,22.70
2017,05,27,16,59,22.80
2017,05,27,17,00,22.90
2017,05,27,17,01,23.00
2017,05,27,17,02,23.10
2017,05,27,17,03,23.20
2017,05,27,17,04,23.30
2017,05,27,17,05,23.30
2017,05,27,17,06,23.40
2017,05,27,17,07,23.50
2017,05,27,17,08,23.60
2017,05,27,17,09,23.70
2017,05,27,17,10,23.70
2017,05,27,17,11,23.70
2017,05,27,17,12,23.70
2017,05,27,17,13,23.70
2017,05,27,17,14,23.60
2017,05,27,17,15,23.50
2017,05,27,17,16,23.40
2017,05,27,17,17,23.30
2017,05,27,17,18,23.30
2017,05,27,17,19,23.40